QPF
0.00 0.00 0.00 0.00 0.00 0.00 0.00 0.00 0.00 0.00 0.00 0.01 0.00 0.00 0.00 0.00 0.00 0.00 0.02 0.02 0.03 0.01 0.00 0.00 0.00 0.00 0.01 0.02 0.03 0.03 0.01 0.01 0.01
0.00 0.00 0.00 0.00 0.00 0.00 0.00 0.00 0.00 0.00 0.01 0.01 0.00 0.00 0.00 0.00 0.00 0.01 0.02 0.03 0.01 0.00 0.00 0.00 0.00 0.00 0.00 0.00 0.00 0.00 0.00 0.00 0.00
0.01 0.00 0.00 0.00 0.00 0.00 0.00 0.00 0.00 0.01 0.00 0.00 0.00 0.00 0.00 0.00 0.00 0.00 0.01 0.02 0.01 0.00 0.00 0.00 0.00 0.00 0.00 0.00 0.00 0.00 0.00 0.00 0.00
0.01 0.01 0.00 0.00 0.00 0.00 0.00 0.00 0.01 0.01 0.00 0.00 0.00 0.00 0.00 0.00 0.00 0.00 0.00 0.00 0.00 0.00 0.00 0.00 0.00 0.00 0.00 0.00 0.00 0.00 0.00 0.00 0.00
0.01 0.00 0.00 0.00 0.00 0.01 0.01 0.01 0.01 0.00 0.00 0.00 0.00 0.00 0.00 0.00 0.00 0.00 0.00 0.00 0.00 0.00 0.00 0.00 0.00 0.00 0.00 0.00 0.00 0.00 0.00 0.00 0.00
0.00 0.00 0.00 0.00 0.00 0.01 0.01 0.02 0.00 0.00 0.00 0.00 0.00 0.00 0.00 0.00 0.00 0.00 0.00 0.00 0.00 0.00 0.00 0.00 0.00 0.00 0.00 0.00 0.00 0.00 0.00 0.00 0.00
0.00 0.00 0.00 0.00 0.01 0.01 0.01 0.00 0.00 0.00 0.00 0.00 0.00 0.00 0.00 0.00 0.00 0.00 0.00 0.00 0.00 0.00 0.00 0.00 0.00 0.00 0.00 0.00 0.00 0.00 0.00 0.00 0.00
0.00 0.00 0.00 0.00 0.00 0.00 0.00 0.00 0.00 0.00 0.00 0.00 0.00 0.00 0.00 0.00 0.00 0.00 0.00 0.00 0.00 0.00 0.00 0.00 0.00 0.00 0.00 0.00 0.00 0.00 0.00 0.00 0.00
0.00 0.00 0.00 0.00 0.00 0.00 0.00 0.00 0.00 0.00 0.00 0.00 0.00 0.00 0.00 0.00 0.00 0.00 0.01 0.00 0.00 0.00 0.00 0.00 0.00 0.00 0.00 0.00 0.00 0.00 0.00 0.00 0.00
0.00 0.00 0.00 0.00 0.00 0.00 0.00 0.00 0.00 0.00 0.00 0.00 0.00 0.00 0.00 0.00 0.00 0.00 0.01 0.00 0.00 0.00 0.00 0.00 0.00 0.00 0.00 0.00 0.00 0.00 0.00 0.00 0.00
0.00 0.00 0.00 0.00 0.00 0.00 0.00 0.00 0.00 0.00 0.00 0.00 0.00 0.00 0.00 0.00 0.00 0.00 0.00 0.00 0.01 0.01 0.00 0.01 0.00 0.00 0.00 0.00 0.00 0.00 0.00 0.00 0.00
0.00 0.00 0.00 0.00 0.00 0.00 0.00 0.00 0.00 0.00 0.00 0.00 0.00 0.00 0.00 0.00 0.00 0.00 0.00 0.00 0.00 0.01 0.01 0.00 0.00 0.00 0.00 0.00 0.00 0.00 0.00 0.00 0.00
0.00 0.00 0.00 0.00 0.00 0.00 0.00 0.00 0.00 0.00 0.00 0.00 0.00 0.00 0.00 0.00 0.00 0.00 0.00 0.00 0.00 0.00 0.00 0.00 0.00 0.00 0.00 0.00 0.00 0.00 0.00 0.00 0.00
0.00 0.00 0.00 0.00 0.00 0.00 0.00 0.00 0.00 0.00 0.00 0.00 0.00 0.00 0.00 0.00 0.00 0.00 0.00 0.00 0.00 0.00 0.00 0.00 0.00 0.00 0.00 0.00 0.00 0.00 0.00 0.00 0.00
0.00 0.00 0.00 0.00 0.00 0.00 0.00 0.00 0.00 0.00 0.00 0.00 0.00 0.00 0.00 0.00 0.00 0.00 0.00 0.00 0.00 0.00 0.00 0.00 0.00 0.00 0.00 0.00 0.00 0.00 0.00 0.00 0.00
0.00 0.00 0.00 0.00 0.00 0.00 0.00 0.00 0.00 0.00 0.00 0.00 0.00 0.00 0.00 0.00 0.00 0.00 0.00 0.00 0.00 0.00 0.00 0.00 0.00 0.00 0.00 0.00 0.00 0.00 0.00 0.00 0.00
0.00 0.00 0.00 0.00 0.00 0.00 0.00 0.00 0.00 0.00 0.00 0.00 0.00 0.00 0.00 0.00 0.00 0.00 0.00 0.00 0.00 0.00 0.00 0.00 0.00 0.00 0.00 0.00 0.00 0.00 0.00 0.00 0.00
0.00 0.00 0.00 0.00 0.00 0.00 0.00 0.00 0.00 0.00 0.00 0.00 0.00 0.00 0.00 0.00 0.00 0.00 0.00 0.00 0.00 0.00 0.00 0.00 0.00 0.00 0.00 0.00 0.00 0.00 0.00 0.00 0.00
0.00 0.00 0.00 0.00 0.00 0.00 0.00 0.00 0.00 0.00 0.00 0.00 0.00 0.00 0.00 0.00 0.00 0.00 0.00 0.00 0.00 0.00 0.00 0.00 0.00 0.00 0.00 0.00 0.00 0.00 0.00 0.00 0.00
0.00 0.00 0.00 0.00 0.00 0.00 0.00 0.00 0.00 0.00 0.00 0.00 0.00 0.00 0.00 0.00 0.00 0.00 0.00 0.00 0.00 0.00 0.00 0.00 0.00 0.00 0.00 0.00 0.00 0.00 0.00 0.00 0.00
MSLP
1019.28 1019.66 1020.04 1020.31 1020.83 1021.24 1021.48 1021.65 1021.92 1022.17 1022.34 1022.52 1022.77 1022.99 1023.11 1023.00 1022.92 1022.85 1022.98 1023.00 1022.99 1023.26 1023.49 1023.61 1023.68 1023.63 1023.81 1023.87 1023.76 1023.80 1024.12 1024.27 1024.49
1019.45 1019.93 1020.32 1020.66 1021.20 1021.48 1021.73 1022.01 1022.27 1022.45 1022.60 1022.86 1023.13 1023.31 1023.32 1023.02 1023.09 1023.19 1023.30 1023.39 1023.57 1023.70 1023.90 1024.04 1024.09 1024.32 1024.47 1024.40 1024.40 1024.59 1024.64 1024.80 1024.90
1019.99 1020.35 1020.75 1021.05 1021.30 1021.63 1021.87 1022.12 1022.44 1022.69 1022.94 1023.22 1023.34 1023.50 1023.50 1023.34 1023.45 1023.65 1023.85 1023.96 1023.97 1024.12 1024.30 1024.52 1024.78 1024.92 1024.94 1024.97 1025.05 1025.18 1025.24 1025.29 1025.36
1020.36 1020.74 1021.04 1021.20 1021.61 1021.82 1021.97 1022.24 1022.50 1022.87 1023.35 1023.57 1023.65 1023.82 1023.99 1023.96 1024.02 1024.07 1024.19 1024.38 1024.41 1024.59 1024.87 1025.14 1025.29 1025.32 1025.41 1025.55 1025.74 1025.87 1025.79 1025.67 1025.77
1020.72 1021.08 1021.28 1021.51 1021.77 1022.01 1022.16 1022.43 1022.75 1023.14 1023.62 1023.87 1024.02 1024.16 1024.18 1024.18 1024.32 1024.48 1024.69 1024.72 1024.97 1025.18 1025.31 1025.51 1025.73 1025.87 1026.04 1026.14 1026.12 1026.22 1026.12 1026.29 1026.27
1021.06 1021.32 1021.54 1021.80 1022.01 1022.23 1022.37 1022.65 1023.10 1023.64 1024.06 1024.29 1024.42 1024.51 1024.57 1024.61 1024.72 1024.95 1025.16 1025.17 1025.40 1025.58 1025.78 1025.99 1026.13 1026.23 1026.36 1026.44 1026.55 1026.65 1026.73 1026.87 1026.95
1021.39 1021.67 1021.89 1022.16 1022.38 1022.58 1022.71 1023.03 1023.55 1023.93 1024.23 1024.43 1024.71 1024.84 1024.97 1025.07 1025.07 1025.25 1025.47 1025.61 1025.89 1026.07 1026.20 1026.39 1026.59 1026.76 1026.86 1026.98 1027.03 1027.14 1027.36 1027.40 1027.46
1021.73 1022.03 1022.39 1022.66 1022.83 1022.92 1023.16 1023.55 1023.81 1023.96 1024.34 1024.81 1025.00 1025.14 1025.07 1025.14 1025.25 1025.47 1025.76 1025.92 1026.11 1026.40 1026.58 1026.64 1026.97 1027.09 1027.32 1027.44 1027.57 1027.72 1027.76 1027.78 1027.81
1022.17 1022.50 1022.89 1023.04 1023.27 1023.43 1023.67 1023.89 1024.13 1024.46 1024.73 1024.92 1025.29 1025.33 1025.31 1025.33 1025.54 1025.85 1026.08 1026.29 1026.52 1026.62 1026.86 1027.01 1027.26 1027.44 1027.61 1027.79 1027.94 1027.99 1028.10 1028.13 1028.19
1022.60 1023.04 1023.14 1023.35 1023.58 1023.76 1024.01 1024.17 1024.43 1024.74 1025.08 1025.35 1025.52 1025.71 1025.81 1025.84 1025.96 1026.21 1026.42 1026.59 1026.88 1027.15 1027.23 1027.43 1027.63 1027.76 1027.94 1028.10 1028.27 1028.36 1028.44 1028.56 1028.66
1022.71 1023.12 1023.34 1023.52 1023.74 1023.98 1024.14 1024.32 1024.60 1025.07 1025.38 1025.74 1026.01 1026.17 1026.30 1026.36 1026.47 1026.61 1026.81 1026.88 1027.07 1027.27 1027.46 1027.71 1027.92 1028.12 1028.22 1028.44 1028.62 1028.81 1028.96 1028.98 1029.01
1022.79 1023.11 1023.42 1023.51 1023.88 1024.14 1024.40 1024.70 1025.02 1025.39 1025.82 1026.09 1026.39 1026.58 1026.72 1026.80 1026.92 1027.02 1027.16 1027.31 1027.49 1027.55 1027.64 1027.85 1028.10 1028.34 1028.57 1028.82 1029.14 1029.27 1029.37 1029.39 1029.38
1022.90 1023.18 1023.48 1023.59 1023.84 1024.09 1024.37 1024.75 1025.21 1025.44 1025.83 1026.23 1026.44 1026.75 1026.98 1027.09 1027.19 1027.30 1027.42 1027.66 1027.79 1027.88 1027.99 1028.20 1028.43 1028.56 1028.86 1029.13 1029.29 1029.46 1029.56 1029.59 1029.56
1022.77 1023.09 1023.46 1023.85 1023.85 1024.06 1024.36 1024.92 1025.05 1025.69 1026.13 1026.49 1026.85 1027.09 1027.26 1027.41 1027.54 1027.64 1027.80 1028.08 1028.34 1028.48 1028.66 1028.88 1028.98 1029.08 1029.21 1029.44 1029.54 1029.61 1029.63 1029.67 1029.63
1022.68 1023.07 1023.39 1023.94 1024.12 1024.30 1024.47 1024.75 1025.30 1025.67 1026.12 1026.64 1027.21 1027.48 1027.64 1027.75 1027.82 1027.98 1028.25 1028.40 1028.48 1028.70 1028.89 1029.04 1029.25 1029.41 1029.50 1029.64 1029.78 1029.81 1029.83 1029.78 1029.74
1022.52 1022.84 1023.26 1023.55 1023.84 1024.04 1024.38 1024.99 1025.33 1025.97 1026.36 1026.75 1027.60 1027.91 1028.11 1028.03 1028.12 1028.40 1028.46 1028.61 1028.80 1028.95 1029.29 1029.42 1029.57 1029.71 1029.85 1029.94 1029.86 1029.93 1029.94 1029.81 1029.75
1022.23 1022.55 1022.90 1023.29 1023.69 1024.10 1024.38 1024.65 1025.35 1025.89 1026.18 1026.21 1026.97 1027.59 1028.12 1028.19 1028.19 1028.44 1028.66 1028.83 1029.07 1029.25 1029.43 1029.49 1029.64 1029.82 1029.92 1030.05 1030.15 1029.94 1029.94 1029.86 1029.69
1021.71 1022.11 1022.52 1023.00 1023.30 1023.62 1023.97 1024.22 1024.47 1024.96 1025.89 1025.74 1025.75 1026.78 1026.63 1027.33 1027.96 1028.10 1028.23 1028.47 1028.68 1028.90 1029.20 1029.50 1029.72 1029.85 1030.00 1030.17 1030.21 1030.22 1030.08 1029.95 1029.75
1021.56 1021.84 1022.16 1022.50 1022.90 1023.23 1023.49 1023.74 1024.05 1024.37 1024.98 1025.82 1025.85 1025.66 1025.68 1026.33 1027.24 1027.77 1027.92 1028.15 1028.36 1028.69 1029.20 1029.51 1029.91 1030.10 1030.30 1030.46 1030.52 1030.43 1030.39 1030.21 1030.01
1021.31 1021.55 1021.82 1022.10 1022.50 1022.69 1023.00 1023.38 1023.72 1023.84 1024.13 1024.50 1025.30 1025.76 1025.89 1026.03 1026.18 1026.81 1027.56 1028.35 1028.46 1028.73 1029.00 1029.39 1029.68 1030.07 1030.39 1030.57 1030.64 1030.77 1030.79 1030.52 1030.35
Thickness
5713 5710 5707 5706 5702 5699 5698 5697 5695 5693 5693 5692 5690 5689 5689 5689 5689 5690 5689 5690 5689 5686 5684 5684 5683 5684 5682 5681 5682 5681 5677 5676 5673
5710 5707 5704 5701 5698 5696 5694 5692 5690 5689 5689 5687 5686 5686 5687 5688 5688 5688 5687 5686 5684 5682 5681 5680 5680 5677 5676 5677 5677 5674 5673 5670 5668
5703 5701 5699 5697 5695 5694 5692 5690 5688 5686 5685 5684 5685 5684 5685 5686 5685 5683 5681 5679 5680 5679 5678 5675 5672 5671 5671 5671 5669 5668 5666 5665 5663
5698 5696 5695 5693 5691 5690 5690 5688 5687 5684 5682 5681 5682 5681 5680 5679 5678 5677 5676 5675 5675 5674 5671 5669 5667 5667 5666 5665 5662 5660 5660 5660 5659
5693 5692 5691 5689 5687 5686 5686 5685 5683 5681 5678 5677 5677 5677 5676 5675 5673 5673 5672 5672 5669 5667 5666 5664 5663 5661 5660 5658 5657 5656 5656 5654 5653
5689 5687 5686 5685 5683 5683 5683 5682 5679 5676 5673 5672 5672 5671 5670 5670 5669 5668 5667 5667 5665 5663 5661 5659 5658 5657 5655 5653 5652 5650 5649 5647 5645
5683 5682 5680 5678 5678 5678 5678 5677 5675 5672 5669 5669 5668 5666 5665 5665 5665 5663 5662 5661 5659 5658 5656 5654 5652 5650 5649 5647 5646 5644 5642 5640 5638
5678 5678 5675 5672 5672 5672 5672 5671 5670 5669 5666 5663 5662 5662 5663 5662 5662 5661 5658 5657 5655 5653 5651 5650 5647 5645 5643 5641 5639 5637 5635 5634 5633
5672 5672 5670 5667 5666 5666 5666 5666 5665 5664 5662 5660 5658 5657 5658 5658 5657 5655 5653 5651 5649 5648 5646 5644 5642 5640 5638 5635 5633 5631 5629 5627 5625
5666 5665 5664 5662 5662 5661 5661 5661 5660 5658 5657 5655 5654 5653 5653 5652 5651 5650 5648 5646 5643 5641 5640 5637 5636 5634 5631 5629 5626 5624 5621 5619 5616
5661 5660 5659 5659 5657 5657 5657 5657 5656 5653 5651 5649 5648 5647 5646 5646 5645 5644 5641 5640 5638 5636 5634 5631 5629 5626 5624 5621 5618 5615 5612 5610 5608
5655 5655 5655 5656 5653 5652 5651 5650 5649 5647 5644 5643 5642 5640 5640 5639 5638 5637 5636 5634 5632 5630 5627 5625 5622 5619 5616 5612 5608 5605 5602 5600 5599
5650 5650 5649 5651 5650 5649 5647 5645 5643 5642 5640 5638 5637 5635 5634 5633 5633 5631 5630 5627 5625 5623 5621 5618 5615 5612 5607 5603 5600 5598 5595 5593 5591
5645 5645 5644 5643 5645 5645 5644 5641 5640 5636 5633 5631 5629 5628 5626 5625 5625 5623 5622 5619 5616 5613 5612 5608 5605 5602 5599 5595 5592 5589 5587 5584 5582
5639 5639 5640 5637 5638 5638 5637 5637 5634 5632 5629 5625 5620 5618 5618 5617 5615 5613 5611 5610 5608 5605 5602 5599 5595 5592 5589 5586 5583 5580 5578 5575 5572
5633 5634 5634 5634 5633 5632 5631 5628 5627 5623 5620 5618 5611 5609 5608 5608 5606 5603 5601 5600 5598 5596 5592 5589 5586 5583 5580 5577 5575 5572 5568 5566 5563
5629 5628 5627 5626 5626 5625 5625 5624 5619 5616 5614 5615 5609 5606 5602 5599 5598 5595 5593 5590 5587 5585 5582 5580 5577 5574 5571 5567 5564 5562 5558 5555 5553
5623 5622 5622 5621 5620 5620 5619 5619 5618 5616 5608 5611 5613 5603 5607 5599 5591 5589 5587 5583 5580 5577 5574 5570 5567 5563 5559 5556 5552 5548 5545 5543 5541
5614 5616 5616 5616 5615 5614 5613 5612 5612 5611 5607 5599 5600 5601 5603 5600 5591 5582 5579 5576 5573 5569 5564 5559 5554 5551 5547 5543 5538 5534 5531 5528 5525
5607 5608 5609 5609 5608 5608 5607 5605 5603 5603 5602 5599 5591 5588 5588 5586 5588 5584 5574 5563 5562 5559 5554 5549 5544 5540 5534 5529 5524 5520 5514 5512 5509